Regional Weather Roundup
Issued by NWS

Home | Current Version | Previous Version | Graphics & Text | Print | Product List | Glossary On
Versions: 1 2 3 4 5 6 7 8 9 10 11 12 13 14 15 16 17 18 19 20 21 22 23 24 25 26 27 28 29 30 31 32 33 34 35 36 37 38 39 40 41 42 43 44 45 46 47 48 49 50
000
ASUS43 KMKX 220221
RWRWI

WISCONSIN REGIONAL WEATHER ROUNDUP
NATIONAL WEATHER SERVICE MILWAUKEE/SULLIVAN WI
800 PM CST TUE NOV 21 2017

NOTE: "FAIR" INDICATES FEW OR NO CLOUDS BELOW 12,000 FEET WITH NO
SIGNIFICANT WEATHER AND/OR OBSTRUCTIONS TO VISIBILITY.

WIZ001-002-006>008-014>016-023>028-220300-
NORTHWEST WISCONSIN

CITY           SKY/WX    TMP DP  RH WIND       PRES   REMARKS
SUPERIOR ARPT  CLOUDY    19   8  61 NW9       30.28R WCI   8
ASHLAND        CLOUDY    20  10  65 W7        30.23R WCI  11
HAYWARD        MOCLDY    18   7  62 VRB3      30.21R
SIREN          PTCLDY    19   9  66 NW8       30.27R WCI   9
CUMBERLAND     CLEAR     21  10  63 NW14G23   30.21R WCI   8
RICE LAKE      CLEAR     22  11  61 NW8G16    30.23R WCI  12
CHETEK         CLEAR     23  12  63 NW6G23    30.21R WCI  15
LADYSMITH      CLEAR     22  11  63 NW10      30.19R WCI  11
EAU CLAIRE     CLEAR     23  10  57 NW12      30.21R WCI  12
MENOMONIE      CLEAR     24  11  57 W9        30.23R WCI  14
NEW RICHMOND   CLEAR     21  10  60 NW10G18   30.25R WCI  10
OSCEOLA        CLEAR     22  11  61 W10G17    30.29R WCI  12
$$

WIZ003>005-009-010-017-018-220300-
NORTH CENTRAL WISCONSIN

CITY           SKY/WX    TMP DP  RH WIND       PRES   REMARKS
MANITOWISH WTR FLURRIES  18  12  77 NW12      30.11R WCI   6
ARBOR VITAE    FLURRIES  22  14  72 N13G23    30.10R WCI  10
WOODRUFF       FLURRIES  22  14  72 N13G23    30.10R WCI  10
RHINELANDER    CLOUDY    21  11  65 N12G18    30.10R WCI   9
EAGLE RIVER    FLURRIES  20  12  72 NW15G21   30.08R WCI   6
LAND O LAKES   LGT SNOW  20  15  81 NW8G16    30.09S WCI  11
PHILLIPS       CLOUDY    18  10  71 N6        30.15R WCI   9
TOMAHAWK       CLOUDY    20  10  63 NW15G22   30.13R WCI   7
MEDFORD        CLEAR     18   9  69 NW6       30.13R WCI  10
MERRILL        MOCLDY    19  10  67 CALM      30.14R
$$

WIZ029-030-035-036-043>047-220300-
CENTRAL WISCONSIN

CITY           SKY/WX    TMP DP  RH WIND       PRES   REMARKS
WAUSAU         CLEAR     21  11  65 NW7       30.13R WCI  12
MOSINEE        CLEAR     19  12  73 NW6       30.15R WCI  11
MARSHFIELD     CLEAR     19  11  70 NW8       30.14R WCI   9
STEVENS POINT  CLEAR     20  10  64 W3        30.16R
WAUPACA        CLEAR     25  13  60 NW5       30.16S WCI  19
WAUTOMA        CLEAR     22  13  68 NW5       30.17R WCI  16
WISC RAPIDS    CLEAR     21  12  68 W5        30.17R WCI  15
CAMP DOUGLAS   CLEAR     18  12  79 W8        30.19R WCI   7
$$

WIZ011>013-019>022-031-037>040-048>050-220300-
NORTHEAST WISCONSIN

CITY           SKY/WX    TMP DP  RH WIND       PRES   REMARKS
ANTIGO         CLOUDY    20  10  65 NW10G17   30.10S WCI   9
SHAWANO        CLOUDY    26  12  55 NW7       30.15R WCI  18
OCONTO         CLOUDY    25  11  56 NW9       30.14S WCI  15
STURGEON BAY   FLURRIES  25  14  63 NW17G26   30.13R WCI  12
GREEN BAY      CLOUDY    26  13  57 N13       30.15R WCI  15
MANITOWOC      CLOUDY    27  15  61 NW17G23   30.13R WCI  14
APPLETON       MOCLDY    25  10  54 N16       30.12R WCI  12
CLINTONVILLE   CLEAR     25   9  50 N5        30.15R WCI  19
OSHKOSH        PTCLDY    25  13  60 NW16G22   30.14R WCI  12
$$

WIZ032>034-041-042-053>061-220300-
SOUTHWEST WISCONSIN

CITY           SKY/WX    TMP DP  RH WIND       PRES   REMARKS
LA CROSSE      CLEAR     28  13  53 NW13      30.23R WCI  17
SPARTA         CLEAR     25  13  61 W6        30.22R WCI  18
VIROQUA        CLEAR     22  15  74 W5        30.20R WCI  16
BOSCOBEL       CLEAR     26  14  60 W5        30.24R WCI  20
PRAIRIE DU CHI CLEAR     26  13  57 NW10      30.25R WCI  16
PLATTEVILLE    CLEAR     25  18  74 NW8       30.21R WCI  16
$$

WIZ056-057-062-063-064-067-068-220300-
SOUTH CENTRAL WISCONSIN

CITY           SKY/WX    TMP DP  RH WIND       PRES   REMARKS
REEDSBURG      CLEAR     23  13  65 W8        30.19R WCI  14
BARABOO/DELLS  CLEAR     24  13  63 NW7       30.18R WCI  16
LONE ROCK      CLEAR     26  14  60 W7        30.22R WCI  18
MINERAL POINT  CLEAR     27  18  69 NW8       30.18R WCI  18
MADISON        CLEAR     25  13  60 NW12G21   30.17R WCI  14
MIDDLETON      CLEAR     27  17  65 NW7       30.18R WCI  19
WATERTOWN      PTCLDY    25  15  66 NW7       30.15R WCI  17
MONROE         CLEAR     27  14  59 NW7       30.17R WCI  19
JANESVILLE     CLEAR     25  16  68 NW6       30.17R WCI  18
$$

WIZ051-052-058>065-066-070>072-220300-
SOUTHEAST WISCONSIN

CITY           SKY/WX    TMP DP  RH WIND       PRES   REMARKS
MILWAUKEE      PTCLDY    29  15  56 NW8       30.14R WCI  21
WAUKESHA       CLEAR     25  14  63 NW10      30.14R WCI  15
MILWAUKEE/TIMM CLEAR     27  12  54 NW9       30.14R WCI  17
RACINE         CLEAR     28  14  55 NW7       30.15R WCI  21
BURLINGTON     CLEAR     26  19  73 NW7       30.15R WCI  19
KENOSHA        CLEAR     28  15  58 NW8       30.14R WCI  20
FOND DU LAC    CLOUDY    27  13  55 NW14      30.14R WCI  16
SHEBOYGAN      CLOUDY    28  15  58 NW12G25   30.13R WCI  18
WEST BEND      CLOUDY    28  14  54 NW12G20   30.13R WCI  18
JUNEAU         CLEAR     24  15  67 NW7       30.15R WCI  16
$$

LSZ147-162-220300-
LAKE SUPERIOR

STATION/POSITION TIME  TEMP    WIND        PRES    WAVE
                       AIR SEA DIR/SP/G            HT/PER
                 (UTC) (F)     (DEG/KT/KT) (MB)    (FT/S)
DEVILS ISLAND    0200   23     300/ 16/ 21 1024.1R
SAXON HARBOR     0130   24     330/ 21/ 24 1022.4R
$$

LMZ867-665-643>646-220300-
LAKE MICHIGAN

STATION/POSITION TIME  TEMP    WIND        PRES    WAVE
                       AIR SEA DIR/SP/G            HT/PER
                 (UTC) (F)     (DEG/KT/KT) (MB)    (FT/S)
N MID LAKE BUOY  0150   28 47  300/ 21/ 25 1019.3R   5/ 5
NORTHPORT PIER   0146   28     340/ 24     1019.3F
KEWAUNEE LAKESHO 0154   27     340/ 12/ 17 1019.4R
SHEBOYGAN LAKESH 0200   29     330/ 17/ 21 1020.9R
PORT WASHINGTON  0140   30     330/  6/ 14 1021.3R
MILWAUKEE LAKESH 0200   29     310/ 10/ 13   N/A
S MID LAKE BUOY  0150   34 47  340/ 17/ 25 1019.7R   6/ 6
KENOSHA   LAKESH 0200   29     300/  8/ 11 1020.7
$$

TC  - TEMPERATURE IN CELSIUS
VSB - VISIBILITY IN STATUTE MILES
WCI - WIND CHILL INDEX
HX  - HEAT INDEX





USA.gov is the U.S. government's official web portal to all federal, state and local government web resources and services.